QPF
0.03 0.04 0.05 0.07 0.08 0.08 0.10 0.12 0.11 0.10 0.08 0.08 0.09 0.09 0.07 0.06 0.06 0.05 0.04 0.04 0.04 0.06 0.07 0.08 0.08 0.08 0.08 0.08 0.09 0.08 0.05 0.05 0.05 0.07 0.06 0.03 0.02 0.02 0.02 0.02 0.02 0.02 0.03
0.03 0.04 0.05 0.08 0.10 0.10 0.10 0.11 0.10 0.11 0.09 0.09 0.10 0.09 0.06 0.04 0.03 0.04 0.04 0.05 0.07 0.07 0.09 0.10 0.09 0.07 0.06 0.06 0.06 0.06 0.05 0.05 0.05 0.05 0.06 0.06 0.03 0.01 0.01 0.02 0.02 0.02 0.02
0.04 0.04 0.06 0.09 0.11 0.11 0.11 0.10 0.09 0.10 0.10 0.09 0.08 0.07 0.05 0.03 0.03 0.03 0.04 0.05 0.06 0.08 0.09 0.09 0.08 0.07 0.07 0.07 0.07 0.06 0.05 0.04 0.04 0.04 0.05 0.05 0.04 0.02 0.01 0.01 0.01 0.01 0.01
0.04 0.05 0.07 0.09 0.11 0.13 0.15 0.15 0.14 0.13 0.13 0.11 0.10 0.09 0.08 0.06 0.05 0.04 0.04 0.05 0.06 0.07 0.08 0.08 0.08 0.08 0.08 0.07 0.07 0.07 0.06 0.05 0.05 0.04 0.04 0.04 0.03 0.02 0.01 0.01 0.01 0.01 0.01
0.04 0.05 0.06 0.08 0.12 0.15 0.15 0.15 0.15 0.16 0.14 0.13 0.14 0.15 0.13 0.08 0.05 0.05 0.05 0.04 0.05 0.07 0.06 0.05 0.07 0.08 0.08 0.08 0.08 0.08 0.08 0.06 0.05 0.04 0.03 0.03 0.03 0.02 0.01 0.01 0.01 0.01 0.01
0.04 0.06 0.07 0.09 0.11 0.14 0.14 0.13 0.14 0.16 0.15 0.15 0.18 0.18 0.13 0.09 0.05 0.05 0.04 0.05 0.05 0.04 0.04 0.04 0.05 0.05 0.06 0.06 0.05 0.07 0.07 0.07 0.05 0.03 0.02 0.02 0.02 0.02 0.02 0.01 0.01 0.01 0.01
0.06 0.06 0.06 0.08 0.09 0.12 0.12 0.14 0.15 0.15 0.15 0.17 0.19 0.13 0.11 0.09 0.05 0.04 0.03 0.04 0.03 0.02 0.02 0.03 0.03 0.03 0.03 0.03 0.03 0.04 0.04 0.03 0.04 0.04 0.03 0.02 0.03 0.03 0.02 0.02 0.02 0.01 0.01
0.04 0.05 0.07 0.09 0.07 0.09 0.13 0.16 0.18 0.18 0.16 0.16 0.13 0.10 0.09 0.08 0.06 0.05 0.04 0.03 0.03 0.02 0.02 0.04 0.04 0.03 0.04 0.05 0.06 0.05 0.04 0.04 0.06 0.05 0.03 0.03 0.03 0.03 0.02 0.02 0.03 0.02 0.01
0.03 0.05 0.06 0.08 0.07 0.09 0.13 0.15 0.19 0.24 0.19 0.12 0.08 0.06 0.06 0.07 0.06 0.05 0.04 0.04 0.04 0.03 0.03 0.04 0.07 0.08 0.07 0.07 0.07 0.06 0.04 0.03 0.03 0.03 0.03 0.02 0.01 0.02 0.02 0.03 0.03 0.04 0.03
0.04 0.05 0.07 0.08 0.08 0.09 0.09 0.09 0.14 0.21 0.21 0.13 0.07 0.05 0.05 0.07 0.07 0.06 0.05 0.04 0.04 0.04 0.04 0.04 0.06 0.09 0.09 0.08 0.06 0.04 0.02 0.02 0.02 0.02 0.02 0.01 0.01 0.01 0.01 0.01 0.02 0.03 0.03
0.03 0.04 0.05 0.07 0.07 0.06 0.06 0.05 0.06 0.10 0.14 0.11 0.07 0.04 0.04 0.07 0.07 0.06 0.05 0.05 0.04 0.03 0.04 0.06 0.06 0.06 0.06 0.06 0.05 0.04 0.04 0.03 0.02 0.02 0.01 0.01 0.01 0.00 0.00 0.01 0.01 0.02 0.02
0.02 0.03 0.04 0.07 0.07 0.05 0.05 0.06 0.05 0.05 0.07 0.07 0.05 0.03 0.02 0.03 0.04 0.06 0.08 0.06 0.04 0.04 0.03 0.03 0.04 0.05 0.05 0.06 0.07 0.07 0.07 0.06 0.04 0.02 0.01 0.01 0.00 0.00 0.00 0.01 0.01 0.02 0.02
0.02 0.02 0.03 0.06 0.06 0.04 0.03 0.04 0.05 0.03 0.03 0.04 0.04 0.02 0.03 0.03 0.03 0.04 0.07 0.06 0.04 0.04 0.05 0.04 0.04 0.05 0.05 0.06 0.06 0.05 0.06 0.05 0.04 0.04 0.03 0.02 0.02 0.01 0.01 0.01 0.02 0.02 0.03
0.01 0.01 0.02 0.03 0.04 0.04 0.03 0.02 0.01 0.01 0.01 0.01 0.03 0.03 0.02 0.03 0.03 0.03 0.03 0.04 0.05 0.06 0.07 0.06 0.04 0.05 0.07 0.07 0.05 0.04 0.04 0.04 0.03 0.03 0.03 0.03 0.02 0.02 0.02 0.01 0.01 0.02 0.02
0.01 0.01 0.02 0.02 0.03 0.03 0.03 0.02 0.01 0.01 0.01 0.01 0.02 0.02 0.02 0.02 0.03 0.03 0.03 0.04 0.04 0.05 0.05 0.05 0.04 0.04 0.08 0.09 0.06 0.03 0.03 0.02 0.02 0.03 0.04 0.04 0.03 0.02 0.02 0.02 0.01 0.01 0.01
0.01 0.01 0.01 0.01 0.02 0.01 0.02 0.02 0.01 0.01 0.01 0.01 0.02 0.03 0.03 0.02 0.01 0.02 0.03 0.04 0.05 0.07 0.07 0.07 0.05 0.04 0.09 0.11 0.06 0.03 0.02 0.02 0.02 0.03 0.04 0.05 0.04 0.03 0.03 0.02 0.02 0.02 0.01
0.01 0.01 0.01 0.01 0.01 0.01 0.01 0.02 0.02 0.03 0.02 0.02 0.02 0.02 0.03 0.02 0.01 0.01 0.02 0.04 0.07 0.09 0.09 0.09 0.06 0.05 0.07 0.07 0.05 0.03 0.01 0.02 0.03 0.03 0.04 0.06 0.06 0.05 0.04 0.03 0.03 0.02 0.02
0.01 0.01 0.02 0.02 0.01 0.01 0.01 0.02 0.03 0.02 0.01 0.01 0.01 0.02 0.02 0.02 0.02 0.02 0.02 0.04 0.05 0.07 0.08 0.08 0.06 0.04 0.04 0.03 0.03 0.02 0.01 0.02 0.02 0.04 0.05 0.06 0.06 0.07 0.07 0.05 0.04 0.03 0.03
0.02 0.03 0.03 0.02 0.01 0.00 0.01 0.02 0.03 0.01 0.01 0.01 0.01 0.01 0.02 0.02 0.02 0.02 0.04 0.05 0.05 0.06 0.06 0.07 0.07 0.05 0.03 0.03 0.03 0.03 0.03 0.03 0.03 0.03 0.04 0.04 0.05 0.05 0.05 0.03 0.02 0.02 0.03
0.02 0.03 0.03 0.02 0.01 0.01 0.03 0.03 0.02 0.01 0.01 0.01 0.01 0.01 0.02 0.02 0.02 0.03 0.04 0.05 0.05 0.06 0.05 0.05 0.05 0.05 0.04 0.04 0.03 0.02 0.02 0.02 0.02 0.02 0.02 0.02 0.03 0.04 0.03 0.02 0.01 0.01 0.01
0.03 0.03 0.02 0.02 0.01 0.01 0.03 0.04 0.03 0.02 0.01 0.01 0.01 0.01 0.01 0.01 0.02 0.02 0.04 0.04 0.04 0.05 0.05 0.04 0.02 0.03 0.03 0.03 0.02 0.02 0.02 0.01 0.01 0.01 0.01 0.02 0.03 0.04 0.03 0.03 0.02 0.01 0.01
0.03 0.02 0.02 0.03 0.02 0.02 0.02 0.04 0.03 0.02 0.01 0.01 0.01 0.00 0.01 0.02 0.02 0.02 0.03 0.03 0.03 0.04 0.02 0.02 0.03 0.03 0.03 0.02 0.01 0.01 0.01 0.01 0.01 0.01 0.01 0.02 0.03 0.03 0.03 0.03 0.03 0.02 0.02
0.02 0.02 0.03 0.03 0.02 0.02 0.01 0.02 0.02 0.01 0.01 0.01 0.00 0.00 0.01 0.01 0.02 0.02 0.02 0.02 0.03 0.02 0.02 0.03 0.04 0.03 0.02 0.02 0.03 0.01 0.01 0.01 0.01 0.01 0.02 0.02 0.03 0.04 0.04 0.04 0.03 0.02 0.02
0.01 0.01 0.01 0.01 0.01 0.01 0.02 0.02 0.01 0.01 0.01 0.00 0.00 0.00 0.00 0.01 0.01 0.02 0.02 0.03 0.03 0.02 0.02 0.03 0.03 0.02 0.01 0.01 0.02 0.02 0.01 0.01 0.01 0.01 0.01 0.01 0.02 0.04 0.05 0.04 0.02 0.02 0.02
0.01 0.01 0.01 0.00 0.00 0.01 0.02 0.03 0.02 0.01 0.01 0.00 0.00 0.00 0.00 0.00 0.01 0.01 0.02 0.03 0.02 0.02 0.02 0.02 0.02 0.01 0.01 0.01 0.01 0.02 0.02 0.01 0.01 0.01 0.00 0.01 0.01 0.02 0.03 0.04 0.03 0.02 0.02
0.01 0.01 0.00 0.00 0.00 0.01 0.01 0.02 0.02 0.01 0.00 0.00 0.00 0.00 0.00 0.01 0.01 0.01 0.02 0.02 0.02 0.01 0.02 0.01 0.01 0.01 0.01 0.01 0.00 0.01 0.02 0.02 0.01 0.01 0.00 0.01 0.01 0.01 0.01 0.02 0.03 0.02 0.02
MSLP
1007.91 1008.13 1008.37 1008.59 1008.83 1009.09 1009.39 1009.75 1010.20 1010.71 1011.29 1011.89 1012.49 1013.05 1013.53 1013.94 1014.25 1014.48 1014.65 1014.78 1014.90 1015.01 1015.14 1015.28 1015.42 1015.56 1015.68 1015.76 1015.79 1015.77 1015.69 1015.55 1015.36 1015.12 1014.84 1014.53 1014.20 1013.86 1013.53 1013.22 1012.92 1012.65 1012.40
1007.85 1008.14 1008.43 1008.69 1008.93 1009.19 1009.48 1009.84 1010.29 1010.82 1011.43 1012.06 1012.69 1013.27 1013.76 1014.15 1014.42 1014.61 1014.73 1014.82 1014.90 1014.99 1015.10 1015.23 1015.36 1015.48 1015.57 1015.62 1015.61 1015.55 1015.44 1015.29 1015.10 1014.89 1014.65 1014.39 1014.10 1013.79 1013.45 1013.10 1012.74 1012.38 1012.03
1007.74 1008.09 1008.43 1008.73 1009.01 1009.28 1009.58 1009.95 1010.42 1010.97 1011.60 1012.26 1012.91 1013.51 1014.00 1014.37 1014.61 1014.76 1014.83 1014.87 1014.91 1014.97 1015.05 1015.16 1015.26 1015.35 1015.40 1015.40 1015.34 1015.25 1015.12 1014.96 1014.80 1014.63 1014.44 1014.24 1014.00 1013.71 1013.37 1012.98 1012.55 1012.09 1011.63
1007.66 1008.06 1008.44 1008.79 1009.11 1009.41 1009.73 1010.12 1010.60 1011.17 1011.82 1012.50 1013.16 1013.76 1014.24 1014.59 1014.80 1014.90 1014.93 1014.92 1014.91 1014.93 1014.97 1015.03 1015.10 1015.14 1015.14 1015.09 1014.99 1014.86 1014.71 1014.56 1014.42 1014.29 1014.16 1014.01 1013.82 1013.56 1013.21 1012.78 1012.28 1011.73 1011.17
1007.70 1008.14 1008.57 1008.96 1009.31 1009.64 1009.98 1010.38 1010.87 1011.44 1012.09 1012.77 1013.43 1014.01 1014.47 1014.78 1014.96 1015.01 1014.99 1014.93 1014.87 1014.83 1014.82 1014.84 1014.85 1014.83 1014.78 1014.68 1014.54 1014.38 1014.21 1014.06 1013.94 1013.85 1013.76 1013.66 1013.50 1013.26 1012.90 1012.44 1011.88 1011.25 1010.59
1007.95 1008.42 1008.88 1009.30 1009.68 1010.02 1010.37 1010.77 1011.24 1011.80 1012.42 1013.07 1013.69 1014.24 1014.66 1014.93 1015.06 1015.07 1014.99 1014.87 1014.76 1014.66 1014.60 1014.55 1014.51 1014.44 1014.33 1014.19 1014.00 1013.81 1013.62 1013.47 1013.35 1013.27 1013.21 1013.12 1012.98 1012.74 1012.38 1011.89 1011.28 1010.60 1009.88
1008.42 1008.91 1009.40 1009.84 1010.23 1010.57 1010.91 1011.28 1011.71 1012.21 1012.78 1013.37 1013.93 1014.42 1014.79 1015.01 1015.08 1015.03 1014.90 1014.73 1014.56 1014.41 1014.29 1014.19 1014.09 1013.97 1013.81 1013.62 1013.40 1013.17 1012.95 1012.77 1012.64 1012.55 1012.48 1012.38 1012.23 1011.99 1011.62 1011.11 1010.49 1009.77 1009.02
1009.09 1009.60 1010.11 1010.56 1010.94 1011.26 1011.56 1011.87 1012.23 1012.66 1013.14 1013.64 1014.13 1014.54 1014.83 1014.99 1015.01 1014.91 1014.73 1014.51 1014.28 1014.08 1013.90 1013.75 1013.60 1013.44 1013.25 1013.02 1012.76 1012.49 1012.23 1012.01 1011.83 1011.70 1011.58 1011.46 1011.28 1011.02 1010.63 1010.12 1009.50 1008.79 1008.04
1009.87 1010.40 1010.91 1011.36 1011.72 1012.01 1012.25 1012.49 1012.76 1013.08 1013.46 1013.86 1014.24 1014.57 1014.79 1014.88 1014.84 1014.70 1014.47 1014.21 1013.94 1013.69 1013.47 1013.28 1013.09 1012.89 1012.66 1012.40 1012.10 1011.79 1011.48 1011.20 1010.95 1010.75 1010.57 1010.38 1010.16 1009.87 1009.47 1008.98 1008.38 1007.71 1006.99
1010.65 1011.19 1011.70 1012.14 1012.47 1012.71 1012.88 1013.04 1013.21 1013.43 1013.69 1013.98 1014.26 1014.49 1014.64 1014.67 1014.59 1014.40 1014.14 1013.85 1013.54 1013.26 1013.01 1012.78 1012.56 1012.34 1012.08 1011.79 1011.45 1011.09 1010.73 1010.37 1010.05 1009.75 1009.48 1009.22 1008.94 1008.62 1008.22 1007.74 1007.19 1006.57 1005.92
1011.29 1011.85 1012.36 1012.77 1013.07 1013.26 1013.37 1013.44 1013.51 1013.62 1013.78 1013.96 1014.15 1014.31 1014.39 1014.38 1014.26 1014.05 1013.77 1013.45 1013.12 1012.81 1012.54 1012.28 1012.04 1011.79 1011.51 1011.19 1010.82 1010.42 1009.99 1009.56 1009.14 1008.75 1008.39 1008.04 1007.70 1007.34 1006.94 1006.49 1005.99 1005.44 1004.87
1011.73 1012.28 1012.78 1013.17 1013.44 1013.58 1013.63 1013.63 1013.63 1013.65 1013.72 1013.82 1013.93 1014.02 1014.06 1014.02 1013.88 1013.65 1013.36 1013.03 1012.68 1012.36 1012.05 1011.77 1011.51 1011.23 1010.93 1010.58 1010.18 1009.73 1009.25 1008.75 1008.25 1007.77 1007.31 1006.89 1006.48 1006.09 1005.68 1005.26 1004.81 1004.34 1003.84
1011.92 1012.45 1012.93 1013.30 1013.54 1013.65 1013.66 1013.61 1013.55 1013.51 1013.51 1013.55 1013.61 1013.66 1013.67 1013.61 1013.46 1013.23 1012.93 1012.59 1012.23 1011.88 1011.55 1011.24 1010.95 1010.64 1010.31 1009.94 1009.51 1009.02 1008.49 1007.92 1007.35 1006.80 1006.27 1005.77 1005.31 1004.88 1004.48 1004.08 1003.67 1003.26 1002.84
1011.89 1012.38 1012.83 1013.17 1013.38 1013.47 1013.46 1013.38 1013.29 1013.22 1013.19 1013.19 1013.23 1013.25 1013.25 1013.17 1013.02 1012.79 1012.49 1012.13 1011.76 1011.38 1011.02 1010.67 1010.34 1009.99 1009.63 1009.22 1008.76 1008.24 1007.66 1007.06 1006.44 1005.82 1005.24 1004.69 1004.19 1003.74 1003.32 1002.93 1002.56 1002.19 1001.82
1011.69 1012.12 1012.52 1012.83 1013.02 1013.10 1013.09 1013.01 1012.92 1012.84 1012.80 1012.79 1012.81 1012.83 1012.82 1012.74 1012.59 1012.35 1012.04 1011.67 1011.26 1010.85 1010.44 1010.04 1009.65 1009.26 1008.85 1008.40 1007.91 1007.36 1006.76 1006.12 1005.47 1004.83 1004.21 1003.63 1003.11 1002.63 1002.21 1001.82 1001.46 1001.11 1000.77
1011.41 1011.77 1012.10 1012.38 1012.55 1012.63 1012.63 1012.57 1012.50 1012.43 1012.40 1012.40 1012.42 1012.43 1012.41 1012.33 1012.17 1011.92 1011.58 1011.19 1010.74 1010.28 1009.81 1009.35 1008.90 1008.45 1007.98 1007.49 1006.96 1006.39 1005.77 1005.12 1004.46 1003.81 1003.18 1002.59 1002.06 1001.57 1001.14 1000.74 1000.38 1000.03 999.69
1011.13 1011.39 1011.66 1011.90 1012.06 1012.15 1012.17 1012.14 1012.10 1012.06 1012.04 1012.05 1012.07 1012.08 1012.05 1011.95 1011.77 1011.49 1011.13 1010.70 1010.21 1009.69 1009.15 1008.62 1008.10 1007.58 1007.05 1006.51 1005.95 1005.35 1004.73 1004.09 1003.43 1002.79 1002.17 1001.59 1001.06 1000.57 1000.13 999.72 999.34 998.97 998.61
1010.90 1011.07 1011.27 1011.47 1011.62 1011.72 1011.77 1011.78 1011.77 1011.76 1011.77 1011.78 1011.79 1011.79 1011.73 1011.61 1011.40 1011.09 1010.69 1010.21 1009.67 1009.09 1008.49 1007.88 1007.29 1006.70 1006.12 1005.53 1004.94 1004.33 1003.70 1003.07 1002.44 1001.82 1001.23 1000.68 1000.16 999.68 999.23 998.81 998.40 998.00 997.61
1010.75 1010.83 1010.97 1011.13 1011.28 1011.39 1011.47 1011.52 1011.54 1011.56 1011.58 1011.59 1011.59 1011.55 1011.46 1011.30 1011.05 1010.70 1010.25 1009.73 1009.14 1008.50 1007.85 1007.19 1006.53 1005.89 1005.25 1004.63 1004.01 1003.39 1002.77 1002.16 1001.56 1000.98 1000.42 999.90 999.41 998.94 998.49 998.06 997.63 997.20 996.77
1010.69 1010.69 1010.78 1010.91 1011.05 1011.18 1011.28 1011.35 1011.40 1011.44 1011.45 1011.45 1011.42 1011.35 1011.22 1011.01 1010.71 1010.31 1009.83 1009.26 1008.63 1007.96 1007.27 1006.57 1005.87 1005.19 1004.53 1003.88 1003.24 1002.62 1002.02 1001.43 1000.86 1000.32 999.80 999.32 998.86 998.41 997.98 997.54 997.09 996.64 996.17
1010.68 1010.62 1010.67 1010.78 1010.92 1011.06 1011.18 1011.27 1011.34 1011.37 1011.38 1011.35 1011.28 1011.16 1010.97 1010.71 1010.36 1009.92 1009.41 1008.82 1008.17 1007.48 1006.78 1006.07 1005.36 1004.67 1004.00 1003.34 1002.71 1002.09 1001.51 1000.94 1000.40 999.90 999.42 998.97 998.55 998.13 997.71 997.28 996.83 996.35 995.85
1010.70 1010.62 1010.64 1010.74 1010.87 1011.01 1011.14 1011.24 1011.30 1011.33 1011.31 1011.25 1011.13 1010.96 1010.71 1010.40 1010.01 1009.54 1009.00 1008.40 1007.76 1007.09 1006.40 1005.70 1005.02 1004.34 1003.69 1003.05 1002.43 1001.83 1001.26 1000.72 1000.21 999.73 999.29 998.88 998.48 998.10 997.70 997.29 996.84 996.36 995.84
1010.74 1010.65 1010.66 1010.75 1010.87 1011.01 1011.13 1011.23 1011.28 1011.28 1011.23 1011.12 1010.96 1010.73 1010.44 1010.08 1009.65 1009.16 1008.62 1008.04 1007.42 1006.79 1006.14 1005.50 1004.86 1004.23 1003.61 1003.00 1002.41 1001.84 1001.29 1000.76 1000.27 999.82 999.40 999.01 998.64 998.29 997.92 997.53 997.10 996.62 996.10
1010.79 1010.70 1010.71 1010.78 1010.90 1011.02 1011.13 1011.20 1011.23 1011.20 1011.12 1010.97 1010.76 1010.49 1010.15 1009.76 1009.32 1008.83 1008.30 1007.75 1007.18 1006.60 1006.02 1005.45 1004.88 1004.31 1003.74 1003.18 1002.62 1002.08 1001.54 1001.04 1000.56 1000.11 999.71 999.33 998.99 998.66 998.32 997.96 997.56 997.10 996.59
1010.84 1010.76 1010.77 1010.83 1010.93 1011.03 1011.11 1011.16 1011.15 1011.09 1010.98 1010.79 1010.55 1010.25 1009.89 1009.49 1009.04 1008.57 1008.08 1007.58 1007.07 1006.56 1006.06 1005.57 1005.07 1004.57 1004.07 1003.56 1003.04 1002.51 1002.00 1001.49 1001.01 1000.57 1000.16 999.80 999.47 999.16 998.85 998.52 998.15 997.73 997.24
1010.90 1010.83 1010.82 1010.87 1010.94 1011.01 1011.06 1011.08 1011.04 1010.96 1010.81 1010.61 1010.36 1010.04 1009.69 1009.30 1008.88 1008.44 1008.00 1007.56 1007.12 1006.69 1006.28 1005.86 1005.44 1005.01 1004.56 1004.10 1003.61 1003.10 1002.59 1002.08 1001.60 1001.14 1000.73 1000.36 1000.03 999.74 999.45 999.16 998.83 998.44 997.98
Thickness
5731 5733 5734 5734 5732 5730 5727 5723 5721 5719 5716 5714 5711 5709 5706 5705 5703 5701 5699 5697 5694 5691 5688 5685 5681 5678 5674 5671 5668 5665 5662 5660 5658 5656 5655 5657 5658 5658 5658 5658 5658 5658 5658
5724 5726 5727 5727 5725 5723 5721 5718 5715 5714 5711 5708 5706 5703 5700 5699 5697 5695 5693 5691 5689 5687 5684 5680 5677 5674 5670 5666 5663 5660 5657 5654 5652 5650 5647 5647 5649 5651 5652 5651 5652 5652 5652
5717 5718 5718 5718 5717 5716 5715 5713 5710 5708 5706 5703 5699 5696 5694 5692 5689 5688 5687 5685 5683 5681 5678 5675 5672 5669 5665 5662 5659 5656 5652 5649 5647 5645 5642 5640 5639 5640 5643 5644 5645 5645 5645
5712 5712 5712 5711 5710 5710 5710 5707 5705 5703 5701 5698 5695 5692 5688 5685 5684 5682 5681 5680 5678 5676 5674 5671 5668 5664 5660 5657 5655 5652 5649 5646 5642 5640 5638 5637 5636 5633 5635 5636 5637 5638 5639
5706 5706 5706 5705 5705 5704 5703 5702 5700 5699 5696 5694 5691 5687 5684 5682 5680 5678 5676 5674 5672 5670 5669 5666 5663 5660 5657 5654 5651 5649 5646 5643 5640 5637 5635 5632 5630 5628 5628 5629 5630 5631 5632
5700 5700 5700 5700 5699 5699 5697 5696 5695 5692 5691 5689 5686 5683 5680 5677 5675 5672 5669 5667 5665 5665 5663 5661 5658 5656 5653 5651 5649 5646 5643 5640 5637 5634 5632 5629 5627 5625 5623 5623 5623 5624 5626
5693 5692 5692 5692 5692 5692 5691 5689 5687 5686 5686 5684 5681 5678 5675 5672 5669 5667 5664 5662 5660 5659 5658 5656 5653 5651 5649 5647 5645 5642 5639 5637 5634 5632 5629 5627 5625 5622 5620 5619 5618 5618 5620
5687 5686 5686 5685 5685 5684 5683 5682 5680 5678 5678 5677 5674 5672 5670 5667 5664 5661 5659 5657 5656 5654 5653 5651 5649 5648 5646 5644 5642 5639 5636 5633 5631 5629 5626 5624 5622 5619 5617 5615 5613 5613 5613
5680 5679 5679 5679 5678 5677 5676 5675 5672 5671 5670 5669 5668 5666 5664 5661 5658 5656 5654 5652 5651 5650 5648 5647 5645 5644 5642 5640 5638 5635 5632 5630 5627 5625 5623 5620 5619 5616 5614 5612 5610 5608 5608
5672 5672 5672 5671 5671 5671 5670 5669 5667 5665 5664 5664 5662 5660 5658 5655 5652 5651 5649 5647 5647 5645 5644 5642 5640 5640 5638 5636 5634 5631 5629 5626 5624 5621 5619 5617 5615 5613 5611 5609 5607 5605 5603
5666 5666 5665 5664 5665 5665 5664 5662 5661 5659 5659 5658 5656 5654 5652 5650 5648 5646 5645 5643 5642 5641 5639 5637 5636 5635 5633 5632 5630 5627 5625 5622 5620 5618 5616 5614 5612 5610 5608 5606 5604 5602 5599
5660 5659 5659 5658 5659 5658 5656 5655 5655 5654 5654 5653 5651 5649 5648 5645 5644 5642 5641 5640 5638 5637 5635 5633 5631 5630 5628 5627 5625 5623 5621 5619 5616 5614 5612 5611 5609 5606 5605 5602 5601 5599 5597
5655 5653 5653 5652 5651 5651 5650 5650 5650 5649 5649 5648 5645 5644 5642 5641 5639 5637 5636 5636 5634 5633 5631 5629 5627 5626 5624 5623 5621 5619 5617 5615 5613 5611 5609 5608 5605 5603 5602 5599 5597 5596 5595
5649 5647 5646 5645 5645 5644 5645 5645 5644 5644 5643 5642 5640 5638 5637 5636 5634 5633 5632 5631 5629 5628 5626 5624 5623 5622 5621 5619 5617 5616 5614 5612 5610 5608 5606 5605 5603 5601 5599 5597 5595 5594 5592
5644 5642 5641 5640 5639 5639 5639 5639 5639 5638 5637 5636 5635 5633 5632 5631 5630 5629 5628 5626 5625 5623 5622 5620 5619 5618 5617 5616 5614 5612 5611 5609 5607 5606 5604 5603 5601 5600 5598 5596 5594 5592 5590
5640 5638 5637 5636 5635 5634 5634 5633 5633 5633 5632 5631 5629 5628 5628 5626 5625 5624 5623 5622 5621 5620 5618 5617 5615 5615 5614 5613 5611 5609 5607 5606 5604 5603 5602 5601 5600 5599 5596 5595 5593 5591 5588
5636 5634 5632 5631 5630 5629 5628 5628 5628 5628 5626 5625 5625 5624 5623 5622 5621 5620 5619 5618 5617 5615 5614 5613 5612 5611 5610 5609 5608 5606 5604 5602 5600 5599 5598 5598 5598 5596 5594 5592 5591 5589 5587
5632 5631 5629 5627 5626 5625 5625 5624 5623 5622 5622 5621 5620 5620 5619 5618 5617 5616 5615 5613 5612 5610 5609 5608 5608 5607 5606 5605 5605 5603 5601 5599 5598 5597 5596 5595 5594 5593 5590 5589 5588 5586 5585
5629 5627 5626 5624 5623 5622 5621 5620 5619 5618 5618 5617 5617 5616 5615 5613 5611 5611 5610 5608 5606 5605 5604 5604 5603 5603 5602 5602 5601 5600 5598 5596 5595 5594 5593 5591 5590 5589 5586 5585 5583 5582 5581
5626 5625 5623 5620 5619 5618 5617 5615 5614 5614 5614 5614 5613 5612 5610 5609 5607 5606 5604 5603 5602 5601 5600 5600 5600 5599 5598 5598 5597 5596 5594 5592 5591 5590 5589 5587 5585 5583 5581 5579 5578 5577 5577
5623 5621 5619 5616 5615 5614 5613 5611 5611 5610 5611 5610 5609 5608 5607 5605 5604 5603 5601 5599 5598 5597 5596 5596 5596 5596 5595 5594 5593 5592 5589 5588 5586 5585 5584 5582 5580 5578 5576 5575 5573 5572 5570
5618 5617 5613 5612 5612 5611 5609 5609 5608 5609 5608 5606 5606 5605 5603 5602 5601 5599 5597 5596 5594 5594 5593 5593 5593 5593 5592 5590 5589 5587 5585 5583 5581 5579 5578 5576 5575 5574 5572 5570 5568 5566 5565
5613 5612 5609 5608 5608 5608 5607 5606 5607 5607 5605 5603 5602 5601 5600 5598 5597 5595 5593 5592 5592 5591 5591 5590 5590 5590 5589 5587 5585 5583 5581 5579 5576 5574 5573 5571 5570 5569 5568 5565 5563 5562 5560
5608 5607 5605 5605 5605 5606 5605 5604 5605 5604 5602 5600 5599 5598 5596 5595 5594 5592 5591 5590 5589 5589 5589 5588 5587 5587 5586 5584 5582 5579 5577 5575 5572 5570 5569 5567 5565 5564 5562 5560 5558 5556 5554
5604 5602 5601 5601 5602 5603 5602 5602 5602 5601 5599 5597 5596 5595 5594 5592 5591 5590 5589 5588 5588 5587 5586 5586 5585 5584 5583 5582 5578 5575 5573 5571 5568 5566 5565 5563 5561 5560 5558 5555 5553 5551 5549
5601 5600 5599 5599 5600 5600 5600 5600 5599 5598 5596 5595 5594 5593 5592 5590 5589 5589 5589 5589 5587 5587 5586 5584 5583 5582 5579 5577 5575 5572 5569 5566 5564 5562 5560 5558 5556 5554 5551 5550 5548 5546 5543